This is the latest recevied weather packets stored in our database for station/object KJ4AJP. If no packets are shown the sender has not sent any weather packets the latest 10 day(s).
| Time | Temp. | Humidity | Pressure | Rain* | Wind** | Luminosity | Snow |
|---|---|---|---|---|---|---|---|
| 1778011819 | 17.78° C | 95% | 1007.5 hPa | 0 mm | - | 30 W/m² | - |
| 1778011517 | 17.78° C | 95% | 1007.8 hPa | 0 mm | - | 47 W/m² | - |
| 1778011214 | 17.78° C | 94% | 1007.7 hPa | 0 mm | - | 44 W/m² | - |
| 1778010910 | 18.33° C | 94% | 1007.6 hPa | 1.78 mm | - | 34 W/m² | - |
| 1778010607 | 18.33° C | 93% | 1007.7 hPa | 3.05 mm | - | 59 W/m² | - |
| 1778010304 | 18.33° C | 93% | 1007.7 hPa | 3.05 mm | - | 68 W/m² | - |
| 1778010004 | 18.89° C | 93% | 1007.6 hPa | 1.78 mm | - | 89 W/m² | - |
| 1778009702 | 18.89° C | 92% | 1007.6 hPa | 0 mm | - | 139 W/m² | - |
| 1778009399 | 18.89° C | 91% | 1007.6 hPa | 0 mm | - | 124 W/m² | - |
| 1778009098 | 18.89° C | 91% | 1007.9 hPa | 0 mm | - | 108 W/m² | - |
| 1778008795 | 18.89° C | 91% | 1007.8 hPa | 0 mm | - | 113 W/m² | - |
| 1778008493 | 18.89° C | 91% | 1008.1 hPa | 0 mm | - | 104 W/m² | - |
| 1778008190 | 18.33° C | 91% | 1007.7 hPa | 0 mm | - | 134 W/m² | - |
| 1778007885 | 18.33° C | 92% | 1008 hPa | 0 mm | - | 154 W/m² | - |
| 1778007581 | 18.33° C | 92% | 1008.1 hPa | 0 mm | - | 155 W/m² | - |
| 1778007278 | 18.33° C | 93% | 1008.3 hPa | 0 mm | - | 194 W/m² | - |
| 1778006974 | 17.78° C | 95% | 1008 hPa | 0 mm | - | 281 W/m² | - |
| 1778006671 | 17.78° C | 95% | 1008.1 hPa | 0 mm | - | 204 W/m² | - |
| 1778006368 | 17.78° C | 95% | 1008.1 hPa | 0 mm | - | 94 W/m² | - |
| 1778006065 | 17.22° C | 95% | 1008.4 hPa | 0 mm | - | 129 W/m² | - |
| 1778005762 | 17.22° C | 95% | 1008.5 hPa | 0 mm | - | 130 W/m² | - |
| 1778005459 | 17.22° C | 95% | 1008.7 hPa | 0 mm | - | 129 W/m² | - |
| 1778005155 | 17.22° C | 94% | 1008.9 hPa | 1.27 mm | - | 96 W/m² | - |
| 1778004852 | 17.22° C | 94% | 1008.9 hPa | 1.27 mm | - | 125 W/m² | - |
| 1778004549 | 17.22° C | 94% | 1009.1 hPa | 0 mm | - | 95 W/m² | - |
* Rain latest hour (hover to see other rain measurements)
** Current wind speed in m/s (hover to see current wind gust speed)